| time (UTC) | temp F | wind direction | speed knots | gust knots | rain 1hr in | rain 24hr in | rain mn in | humidity % | barometer mb |
| 20260507235027 | 51 | 65 | 4.3 | 7.8 | 0.00 | 0.51 | 0.00 | 74 | 1016.3 |
| 20260507234540 | 50 | 75 | 4.3 | 7.8 | 0.00 | 0.51 | 0.00 | 75 | 1016.3 |
| 20260507234027 | 49 | 69 | 0.9 | 2.6 | 0.00 | 0.51 | 0.00 | 77 | 1016.4 |
| 20260507233527 | 50 | 0 | 0.0 | 4.3 | 0.00 | 0.51 | 0.00 | 78 | 1016.5 |
| 20260507233044 | 50 | 78 | 0.0 | 4.3 | 0.00 | 0.51 | 0.00 | 76 | 1016.7 |
| 20260507232529 | 50 | 70 | 1.7 | 4.3 | 0.00 | 0.51 | 0.00 | 76 | 1016.6 |
| 20260507232027 | 50 | 53 | 1.7 | 4.3 | 0.00 | 0.51 | 0.00 | 77 | 1016.7 |
| 20260507231539 | 50 | 0 | 0.9 | 3.5 | 0.00 | 0.51 | 0.00 | 78 | 1016.6 |
| 20260507231027 | 50 | 0 | 0.0 | 3.5 | 0.00 | 0.51 | 0.00 | 77 | 1016.8 |
| 20260507230527 | 50 | 58 | 1.7 | 3.5 | 0.00 | 0.51 | 0.00 | 76 | 1016.9 |
| 20260507230045 | 51 | 77 | 0.0 | 5.2 | 0.00 | 0.51 | 0.00 | 75 | 1016.8 |
| 20260507225527 | 51 | 77 | 1.7 | 6.1 | 0.00 | 0.52 | 0.00 | 75 | 1016.8 |
| 20260507225027 | 51 | 55 | 2.6 | 6.1 | 0.00 | 0.52 | 0.00 | 75 | 1016.8 |
| 20260507224542 | 51 | 65 | 3.5 | 6.1 | 0.00 | 0.52 | 0.00 | 75 | 1016.8 |
| 20260507224027 | 51 | 56 | 3.5 | 6.1 | 0.00 | 0.52 | 0.00 | 74 | 1016.8 |
| 20260507223527 | 52 | 60 | 2.6 | 6.1 | 0.00 | 0.52 | 0.00 | 74 | 1016.8 |
| 20260507223044 | 52 | 55 | 2.6 | 5.2 | 0.00 | 0.52 | 0.00 | 73 | 1016.9 |
| 20260507222531 | 52 | 49 | 1.7 | 6.1 | 0.00 | 0.52 | 0.00 | 72 | 1016.6 |
| 20260507222027 | 52 | 56 | 2.6 | 6.1 | 0.00 | 0.52 | 0.00 | 73 | 1016.7 |
| 20260507221540 | 52 | 44 | 3.5 | 7.0 | 0.00 | 0.52 | 0.00 | 73 | 1016.8 |
| 20260507221026 | 52 | 65 | 2.6 | 7.0 | 0.00 | 0.52 | 0.00 | 73 | 1016.7 |
| 20260507220527 | 52 | 56 | 3.5 | 7.0 | 0.00 | 0.52 | 0.00 | 74 | 1016.5 |
| 20260507220039 | 52 | 55 | 3.5 | 7.0 | 0.00 | 0.52 | 0.00 | 74 | 1016.5 |
| 20260507215527 | 52 | 72 | 3.5 | 7.0 | 0.00 | 0.52 | 0.52 | 75 | 1016.5 |
| 20260507215027 | 52 | 72 | 4.3 | 7.0 | 0.00 | 0.52 | 0.52 | 75 | 1016.5 |
| 20260507214549 | 52 | 53 | 3.5 | 6.1 | 0.00 | 0.52 | 0.52 | 75 | 1016.6 |
| 20260507214027 | 52 | 76 | 2.6 | 5.2 | 0.00 | 0.52 | 0.52 | 76 | 1016.5 |
| 20260507213529 | 52 | 82 | 1.7 | 5.2 | 0.00 | 0.52 | 0.52 | 76 | 1016.5 |
| 20260507213043 | 52 | 103 | 1.7 | 6.1 | 0.00 | 0.52 | 0.52 | 76 | 1016.6 |
| 20260507212527 | 52 | 91 | 2.6 | 7.0 | 0.00 | 0.52 | 0.52 | 76 | 1016.6 |
| 20260507212027 | 51 | 65 | 3.5 | 7.0 | 0.00 | 0.52 | 0.52 | 77 | 1016.6 |
| 20260507211542 | 51 | 60 | 3.5 | 7.0 | 0.00 | 0.52 | 0.52 | 77 | 1016.5 |
| 20260507211027 | 51 | 38 | 3.5 | 7.0 | 0.00 | 0.52 | 0.52 | 78 | 1016.6 |
| 20260507210527 | 51 | 57 | 3.5 | 7.0 | 0.00 | 0.52 | 0.52 | 77 | 1016.6 |
| 20260507210040 | 51 | 91 | 3.5 | 7.0 | 0.00 | 0.52 | 0.52 | 77 | 1016.6 |
| 20260507205527 | 51 | 49 | 3.5 | 7.0 | 0.00 | 0.52 | 0.52 | 78 | 1016.6 |
| 20260507205031 | 51 | 68 | 2.6 | 5.2 | 0.00 | 0.52 | 0.52 | 79 | 1016.6 |
| 20260507204539 | 50 | 74 | 2.6 | 5.2 | 0.00 | 0.52 | 0.52 | 81 | 1016.7 |
| 20260507204029 | 50 | 86 | 2.6 | 5.2 | 0.00 | 0.52 | 0.52 | 82 | 1016.7 |
| 20260507203528 | 50 | 70 | 1.7 | 5.2 | 0.00 | 0.52 | 0.52 | 84 | 1016.9 |
| 20260507203047 | 49 | 60 | 0.0 | 0.0 | 0.00 | 0.52 | 0.52 | 84 | 1016.9 |
| 20260507202527 | 49 | 0 | 0.0 | 1.7 | 0.00 | 0.52 | 0.52 | 84 | 1016.9 |
| 20260507202027 | 49 | 0 | 0.0 | 1.7 | 0.00 | 0.52 | 0.52 | 84 | 1017.0 |
| 20260507201554 | 50 | 0 | 0.0 | 1.7 | 0.00 | 0.52 | 0.52 | 84 | 1017.0 |
| 20260507201027 | 50 | 44 | 0.0 | 1.7 | 0.00 | 0.52 | 0.52 | 84 | 1017.0 |
| 20260507200527 | 50 | 0 | 0.0 | 1.7 | 0.00 | 0.52 | 0.52 | 84 | 1017.2 |
| 20260507200059 | 50 | 67 | 0.0 | 4.3 | 0.00 | 0.52 | 0.52 | 82 | 1017.0 |
| 20260507195527 | 50 | 68 | 1.7 | 5.2 | 0.00 | 0.52 | 0.52 | 82 | 1017.0 |
| 20260507195027 | 51 | 57 | 2.6 | 5.2 | 0.00 | 0.52 | 0.52 | 82 | 1016.9 |
| 20260507194540 | 51 | 56 | 2.6 | 5.2 | 0.00 | 0.52 | 0.52 | 82 | 1016.8 |
| 20260507194026 | 51 | 70 | 2.6 | 5.2 | 0.00 | 0.52 | 0.52 | 82 | 1016.9 |
| 20260507193527 | 51 | 103 | 0.9 | 4.3 | 0.00 | 0.52 | 0.52 | 82 | 1016.9 |
| 20260507193045 | 51 | 101 | 1.7 | 5.2 | 0.00 | 0.52 | 0.52 | 83 | 1017.0 |
| 20260507192528 | 51 | 65 | 2.6 | 6.1 | 0.00 | 0.52 | 0.52 | 83 | 1016.8 |
| 20260507192029 | 51 | 49 | 2.6 | 6.1 | 0.00 | 0.52 | 0.52 | 84 | 1016.8 |
| 20260507191546 | 51 | 37 | 2.6 | 5.2 | 0.00 | 0.52 | 0.52 | 86 | 1016.8 |
| 20260507191027 | 51 | 91 | 1.7 | 4.3 | 0.00 | 0.52 | 0.52 | 87 | 1016.7 |
| 20260507190529 | 51 | 53 | 0.0 | 3.5 | 0.00 | 0.52 | 0.52 | 87 | 1016.8 |
| 20260507190049 | 51 | 0 | 0.0 | 3.5 | 0.00 | 0.52 | 0.52 | 87 | 1016.7 |
| 20260507185532 | 52 | 53 | 0.9 | 3.5 | 0.00 | 0.52 | 0.52 | 86 | 1016.6 |
| 20260507185027 | 52 | 52 | 1.7 | 5.2 | 0.00 | 0.52 | 0.52 | 85 | 1016.5 |
| 20260507184550 | 52 | 73 | 1.7 | 7.0 | 0.00 | 0.52 | 0.52 | 84 | 1016.4 |
| 20260507184027 | 52 | 75 | 1.7 | 7.0 | 0.00 | 0.52 | 0.52 | 84 | 1016.3 |
| 20260507183527 | 52 | 73 | 0.9 | 5.2 | 0.00 | 0.52 | 0.52 | 84 | 1016.3 |
| 20260507183038 | 52 | 94 | 1.7 | 4.3 | 0.00 | 0.52 | 0.52 | 85 | 1016.3 |
| 20260507182527 | 52 | 79 | 1.7 | 4.3 | 0.00 | 0.52 | 0.52 | 86 | 1016.3 |
| 20260507182027 | 52 | 0 | 0.0 | 6.1 | 0.00 | 0.52 | 0.52 | 85 | 1016.3 |
| 20260507181538 | 52 | 61 | 1.7 | 7.0 | 0.00 | 0.52 | 0.52 | 84 | 1016.3 |
| 20260507181027 | 53 | 56 | 1.7 | 7.0 | 0.00 | 0.52 | 0.52 | 83 | 1016.0 |
| 20260507180530 | 53 | 95 | 2.6 | 7.0 | 0.00 | 0.52 | 0.52 | 83 | 1016.0 |
| 20260507180040 | 53 | 47 | 0.9 | 7.0 | 0.00 | 0.52 | 0.52 | 83 | 1016.1 |
| 20260507175527 | 53 | 107 | 1.7 | 6.1 | 0.00 | 0.52 | 0.52 | 83 | 1016.0 |
| 20260507175027 | 53 | 63 | 2.6 | 6.1 | 0.00 | 0.52 | 0.52 | 83 | 1015.9 |
| 20260507174539 | 53 | 56 | 1.7 | 5.2 | 0.00 | 0.52 | 0.52 | 83 | 1015.8 |
| 20260507174029 | 53 | 92 | 1.7 | 6.1 | 0.00 | 0.52 | 0.52 | 83 | 1015.8 |
| 20260507173531 | 53 | 84 | 2.6 | 6.1 | 0.00 | 0.52 | 0.52 | 83 | 1015.7 |
| 20260507173043 | 53 | 77 | 0.9 | 4.3 | 0.00 | 0.52 | 0.52 | 83 | 1015.7 |
| 20260507172527 | 53 | 90 | 0.9 | 5.2 | 0.00 | 0.52 | 0.52 | 82 | 1015.7 |
| 20260507172027 | 53 | 0 | 1.7 | 7.0 | 0.00 | 0.52 | 0.52 | 82 | 1015.7 |
| 20260507171541 | 54 | 114 | 0.9 | 8.7 | 0.00 | 0.52 | 0.52 | 81 | 1015.8 |
| 20260507171027 | 54 | 105 | 2.6 | 8.7 | 0.00 | 0.52 | 0.52 | 81 | 1015.7 |
| 20260507170528 | 54 | 117 | 1.7 | 5.2 | 0.00 | 0.52 | 0.52 | 81 | 1015.9 |
| 20260507170039 | 54 | 108 | 1.7 | 5.2 | 0.00 | 0.52 | 0.52 | 81 | 1015.9 |
| 20260507165530 | 54 | 104 | 1.7 | 4.3 | 0.00 | 0.52 | 0.52 | 82 | 1015.9 |
| 20260507165027 | 54 | 68 | 1.7 | 4.3 | 0.00 | 0.52 | 0.52 | 81 | 1015.9 |
| 20260507164550 | 54 | 86 | 1.7 | 4.3 | 0.00 | 0.52 | 0.52 | 82 | 1016.0 |
| 20260507164028 | 54 | 110 | 1.7 | 5.2 | 0.00 | 0.52 | 0.52 | 82 | 1016.0 |
| 20260507163530 | 54 | 76 | 0.0 | 9.6 | 0.00 | 0.52 | 0.52 | 82 | 1016.0 |
| 20260507163045 | 54 | 92 | 2.6 | 9.6 | 0.00 | 0.52 | 0.52 | 81 | 1015.9 |
| 20260507162527 | 54 | 108 | 2.6 | 9.6 | 0.00 | 0.52 | 0.52 | 82 | 1015.9 |
| 20260507162028 | 54 | 79 | 3.5 | 7.0 | 0.00 | 0.52 | 0.52 | 82 | 1015.9 |
| 20260507161546 | 54 | 110 | 3.5 | 7.0 | 0.00 | 0.52 | 0.52 | 82 | 1016.0 |
| 20260507161027 | 54 | 153 | 2.6 | 7.0 | 0.00 | 0.52 | 0.52 | 83 | 1016.0 |
| 20260507160527 | 54 | 148 | 2.6 | 7.0 | 0.00 | 0.52 | 0.52 | 84 | 1016.0 |
| 20260507160040 | 54 | 100 | 3.5 | 7.0 | 0.00 | 0.52 | 0.52 | 84 | 1015.9 |
| 20260507155526 | 54 | 131 | 2.6 | 6.1 | 0.00 | 0.52 | 0.52 | 84 | 1016.0 |
| 20260507155027 | 54 | 163 | 2.6 | 7.0 | 0.00 | 0.52 | 0.52 | 84 | 1016.0 |
| 20260507154545 | 54 | 111 | 0.9 | 7.0 | 0.00 | 0.52 | 0.52 | 84 | 1015.9 |
| 20260507154028 | 54 | 121 | 2.6 | 7.0 | 0.00 | 0.52 | 0.52 | 83 | 1015.9 |
| 20260507153527 | 54 | 107 | 1.7 | 5.2 | 0.00 | 0.52 | 0.52 | 84 | 1015.9 |
| 20260507153038 | 54 | 91 | 1.7 | 5.2 | 0.00 | 0.52 | 0.52 | 85 | 1015.9 |
| 20260507152527 | 54 | 98 | 2.6 | 7.8 | 0.00 | 0.52 | 0.52 | 85 | 1016.0 |
| 20260507152028 | 54 | 82 | 3.5 | 8.7 | 0.00 | 0.52 | 0.52 | 85 | 1016.0 |
| 20260507151539 | 54 | 110 | 4.3 | 8.7 | 0.00 | 0.52 | 0.52 | 85 | 1015.9 |
| 20260507151027 | 54 | 134 | 3.5 | 7.8 | 0.00 | 0.52 | 0.52 | 85 | 1016.0 |
| 20260507150527 | 54 | 116 | 3.5 | 8.7 | 0.00 | 0.52 | 0.52 | 85 | 1015.9 |
| 20260507150043 | 54 | 126 | 3.5 | 8.7 | 0.00 | 0.52 | 0.52 | 86 | 1015.9 |
| 20260507145527 | 54 | 63 | 4.3 | 8.7 | 0.00 | 0.52 | 0.52 | 86 | 1016.0 |
| 20260507145027 | 54 | 123 | 2.6 | 10.4 | 0.00 | 0.52 | 0.52 | 87 | 1016.0 |
| 20260507144540 | 54 | 127 | 4.3 | 12.2 | 0.00 | 0.52 | 0.52 | 87 | 1015.9 |
| 20260507144028 | 54 | 79 | 5.2 | 12.2 | 0.00 | 0.52 | 0.52 | 86 | 1016.0 |
| 20260507143528 | 54 | 103 | 5.2 | 12.2 | 0.00 | 0.52 | 0.52 | 87 | 1016.0 |
| 20260507143039 | 54 | 117 | 4.3 | 11.3 | 0.00 | 0.52 | 0.52 | 88 | 1016.2 |
| 20260507142527 | 54 | 114 | 5.2 | 11.3 | 0.00 | 0.52 | 0.52 | 88 | 1016.2 |
| 20260507142027 | 54 | 115 | 3.5 | 11.3 | 0.00 | 0.52 | 0.52 | 88 | 1016.1 |
| 20260507141552 | 54 | 84 | 2.6 | 7.8 | 0.00 | 0.52 | 0.52 | 89 | 1016.2 |
| 20260507141027 | 53 | 135 | 3.5 | 7.0 | 0.00 | 0.52 | 0.52 | 89 | 1016.2 |
| 20260507140528 | 53 | 70 | 1.7 | 7.0 | 0.00 | 0.52 | 0.52 | 90 | 1016.2 |
| 20260507140044 | 53 | 123 | 2.6 | 6.1 | 0.00 | 0.52 | 0.52 | 89 | 1016.1 |
| 20260507135527 | 53 | 101 | 2.6 | 7.8 | 0.00 | 0.53 | 0.52 | 90 | 1016.2 |
| 20260507135028 | 53 | 83 | 3.5 | 8.7 | 0.00 | 0.53 | 0.52 | 90 | 1016.2 |
| 20260507134539 | 53 | 86 | 3.5 | 8.7 | 0.00 | 0.53 | 0.52 | 90 | 1016.2 |
| 20260507134027 | 53 | 110 | 2.6 | 7.0 | 0.00 | 0.53 | 0.52 | 90 | 1016.2 |
| 20260507133529 | 53 | 45 | 3.5 | 7.8 | 0.00 | 0.53 | 0.52 | 90 | 1016.3 |
| 20260507133055 | 53 | 72 | 2.6 | 7.8 | 0.00 | 0.53 | 0.52 | 90 | 1016.3 |
| 20260507132533 | 53 | 96 | 1.7 | 7.0 | 0.00 | 0.53 | 0.52 | 91 | 1016.3 |
| 20260507132027 | 53 | 112 | 3.5 | 7.0 | 0.00 | 0.53 | 0.52 | 90 | 1016.3 |
| 20260507131551 | 54 | 95 | 1.7 | 6.1 | 0.00 | 0.53 | 0.52 | 91 | 1016.3 |
| 20260507131028 | 54 | 69 | 1.7 | 5.2 | 0.00 | 0.53 | 0.52 | 91 | 1016.3 |
| 20260507130528 | 54 | 73 | 0.9 | 6.1 | 0.00 | 0.53 | 0.52 | 92 | 1016.2 |
| 20260507130054 | 53 | 144 | 2.6 | 7.8 | 0.00 | 0.53 | 0.52 | 92 | 1016.2 |
| 20260507125527 | 53 | 93 | 0.9 | 7.8 | 0.00 | 0.53 | 0.52 | 93 | 1016.3 |
| 20260507125027 | 53 | 63 | 1.7 | 7.0 | 0.00 | 0.53 | 0.52 | 93 | 1016.2 |
| 20260507124544 | 53 | 96 | 1.7 | 7.0 | 0.00 | 0.53 | 0.52 | 93 | 1016.3 |
| 20260507124027 | 52 | 82 | 3.5 | 7.0 | 0.00 | 0.53 | 0.52 | 93 | 1016.4 |
| 20260507123527 | 52 | 120 | 2.6 | 7.0 | 0.00 | 0.53 | 0.52 | 94 | 1016.4 |
| 20260507123039 | 52 | 106 | 1.7 | 7.0 | 0.01 | 0.53 | 0.52 | 94 | 1016.3 |
| 20260507122529 | 52 | 117 | 2.6 | 7.0 | 0.03 | 0.53 | 0.52 | 93 | 1016.1 |
| 20260507122030 | 51 | 100 | 0.9 | 7.8 | 0.07 | 0.53 | 0.52 | 93 | 1016.2 |
| 20260507121538 | 51 | 101 | 2.6 | 7.8 | 0.09 | 0.53 | 0.52 | 93 | 1016.2 |
| 20260507121028 | 51 | 116 | 1.7 | 7.0 | 0.11 | 0.53 | 0.52 | 93 | 1016.0 |
| 20260507120527 | 51 | 113 | 1.7 | 6.1 | 0.13 | 0.53 | 0.52 | 93 | 1016.2 |
| 20260507120051 | 51 | 117 | 1.7 | 7.0 | 0.15 | 0.53 | 0.52 | 93 | 1016.0 |
| 20260507115527 | 51 | 92 | 2.6 | 10.4 | 0.18 | 0.53 | 0.52 | 93 | 1015.9 |
| 20260507115031 | 51 | 123 | 4.3 | 10.4 | 0.18 | 0.53 | 0.52 | 93 | 1015.9 |
| 20260507114617 | 51 | 181 | 0.0 | 6.1 | 0.19 | 0.53 | 0.52 | 93 | 1015.9 |
| 20260507114027 | 51 | 255 | 0.9 | 6.1 | 0.22 | 0.53 | 0.52 | 93 | 1015.9 |
| 20260507113529 | 51 | 228 | 3.5 | 7.0 | 0.22 | 0.53 | 0.52 | 93 | 1015.8 |
| 20260507113039 | 51 | 104 | 1.7 | 7.0 | 0.22 | 0.51 | 0.50 | 92 | 1015.6 |
| 20260507112531 | 51 | 95 | 0.9 | 8.7 | 0.21 | 0.49 | 0.48 | 92 | 1015.5 |
| 20260507112027 | 51 | 176 | 0.9 | 8.7 | 0.18 | 0.46 | 0.45 | 92 | 1015.6 |
| 20260507111539 | 51 | 88 | 3.5 | 8.7 | 0.15 | 0.43 | 0.42 | 92 | 1015.4 |
| 20260507111027 | 51 | 114 | 3.5 | 8.7 | 0.14 | 0.41 | 0.40 | 92 | 1015.4 |
| 20260507110522 | 51 | 58 | 2.6 | 7.0 | 0.12 | 0.40 | 0.39 | 93 | 1015.4 |
| 20260507110039 | 51 | 117 | 3.5 | 8.7 | 0.10 | 0.37 | 0.36 | 93 | 1015.6 |
| 20260507105523 | 51 | 57 | 2.6 | 9.6 | 0.08 | 0.35 | 0.34 | 93 | 1015.6 |
| 20260507105025 | 51 | 27 | 3.5 | 9.6 | 0.08 | 0.34 | 0.33 | 93 | 1015.7 |
| 20260507104537 | 51 | 117 | 2.6 | 8.7 | 0.07 | 0.33 | 0.32 | 93 | 1015.6 |
| 20260507104025 | 50 | 94 | 3.5 | 8.7 | 0.06 | 0.31 | 0.30 | 93 | 1015.7 |
| 20260507103525 | 50 | 150 | 3.5 | 7.0 | 0.04 | 0.29 | 0.29 | 93 | 1015.7 |
| 20260507103035 | 50 | 94 | 2.6 | 7.0 | 0.04 | 0.29 | 0.28 | 93 | 1015.6 |
| 20260507102525 | 50 | 121 | 1.7 | 6.1 | 0.03 | 0.28 | 0.27 | 93 | 1015.7 |
| 20260507102023 | 50 | 60 | 2.6 | 6.1 | 0.03 | 0.27 | 0.26 | 93 | 1015.6 |
| 20260507101544 | 50 | 92 | 3.5 | 6.1 | 0.04 | 0.27 | 0.26 | 93 | 1015.6 |
| 20260507101024 | 50 | 79 | 1.7 | 7.0 | 0.05 | 0.27 | 0.26 | 93 | 1015.6 |
| 20260507100526 | 50 | 73 | 1.7 | 7.0 | 0.06 | 0.27 | 0.26 | 93 | 1015.6 |
| 20260507100040 | 50 | 95 | 3.5 | 7.0 | 0.06 | 0.26 | 0.25 | 93 | 1015.8 |
| 20260507095523 | 50 | 120 | 3.5 | 8.7 | 0.07 | 0.26 | 0.25 | 93 | 1015.8 |
| 20260507095026 | 50 | 105 | 3.5 | 9.6 | 0.07 | 0.25 | 0.25 | 92 | 1015.7 |
| 20260507094540 | 50 | 141 | 2.6 | 9.6 | 0.07 | 0.25 | 0.25 | 93 | 1015.7 |
| 20260507094025 | 50 | 77 | 5.2 | 9.6 | 0.07 | 0.25 | 0.24 | 92 | 1015.5 |
| 20260507093522 | 50 | 126 | 1.7 | 9.6 | 0.08 | 0.25 | 0.24 | 93 | 1015.7 |
| 20260507093038 | 50 | 174 | 2.6 | 12.2 | 0.08 | 0.24 | 0.23 | 93 | 1015.7 |
| 20260507092526 | 49 | 139 | 6.1 | 13.0 | 0.09 | 0.24 | 0.23 | 92 | 1015.7 |
| 20260507092022 | 49 | 103 | 5.2 | 13.0 | 0.08 | 0.23 | 0.22 | 92 | 1015.6 |
| 20260507091546 | 49 | 129 | 5.2 | 12.2 | 0.08 | 0.22 | 0.22 | 92 | 1015.7 |
| 20260507091025 | 49 | 119 | 5.2 | 13.0 | 0.07 | 0.22 | 0.21 | 92 | 1015.7 |
| 20260507090528 | 49 | 354 | 6.1 | 13.0 | 0.07 | 0.21 | 0.20 | 92 | 1015.3 |
| 20260507090041 | 49 | 68 | 6.1 | 13.9 | 0.07 | 0.20 | 0.19 | 92 | 1015.4 |
| 20260507085526 | 49 | 92 | 6.1 | 13.9 | 0.07 | 0.19 | 0.18 | 92 | 1015.2 |
| 20260507085026 | 49 | 110 | 7.0 | 13.9 | 0.05 | 0.18 | 0.17 | 92 | 1015.4 |
| 20260507084553 | 49 | 86 | 6.1 | 12.2 | 0.05 | 0.18 | 0.17 | 92 | 1015.2 |
| 20260507084025 | 49 | 100 | 4.3 | 11.3 | 0.05 | 0.17 | 0.16 | 92 | 1015.4 |
| 20260507083526 | 49 | 153 | 4.3 | 11.3 | 0.04 | 0.16 | 0.15 | 92 | 1015.3 |
| 20260507083038 | 49 | 90 | 4.3 | 11.3 | 0.04 | 0.15 | 0.14 | 92 | 1015.3 |
| 20260507082526 | 49 | 115 | 5.2 | 11.3 | 0.03 | 0.14 | 0.14 | 92 | 1015.4 |
| 20260507082025 | 49 | 87 | 4.3 | 13.9 | 0.03 | 0.14 | 0.14 | 92 | 1015.6 |
| 20260507081547 | 49 | 100 | 4.3 | 13.9 | 0.03 | 0.14 | 0.13 | 92 | 1015.2 |
| 20260507081023 | 49 | 72 | 6.1 | 11.3 | 0.03 | 0.14 | 0.13 | 92 | 1015.4 |
| 20260507080522 | 49 | 83 | 5.2 | 13.0 | 0.03 | 0.13 | 0.12 | 92 | 1015.4 |
| 20260507080048 | 48 | 68 | 5.2 | 13.0 | 0.03 | 0.13 | 0.12 | 92 | 1015.4 |
| 20260507075525 | 48 | 77 | 3.5 | 8.7 | 0.03 | 0.12 | 0.11 | 92 | 1015.4 |
| 20260507075025 | 48 | 141 | 2.6 | 8.7 | 0.03 | 0.12 | 0.11 | 92 | 1015.3 |
| 20260507074542 | 48 | 70 | 2.6 | 8.7 | 0.03 | 0.12 | 0.11 | 92 | 1015.4 |
| 20260507074027 | 48 | 92 | 4.3 | 8.7 | 0.03 | 0.11 | 0.11 | 91 | 1015.6 |
| 20260507073526 | 48 | 110 | 4.3 | 8.7 | 0.03 | 0.11 | 0.11 | 91 | 1015.5 |
| 20260507073040 | 48 | 74 | 2.6 | 12.2 | 0.02 | 0.11 | 0.10 | 91 | 1015.6 |
| 20260507072526 | 48 | 115 | 4.3 | 12.2 | 0.03 | 0.11 | 0.10 | 91 | 1015.3 |
| 20260507072025 | 48 | 70 | 4.3 | 10.4 | 0.03 | 0.11 | 0.10 | 91 | 1015.3 |
| 20260507071538 | 48 | 92 | 4.3 | 9.6 | 0.02 | 0.10 | 0.09 | 91 | 1015.3 |
| 20260507071029 | 48 | 123 | 5.2 | 9.6 | 0.03 | 0.10 | 0.09 | 91 | 1015.4 |
| 20260507070525 | 48 | 98 | 2.6 | 12.2 | 0.02 | 0.09 | 0.08 | 91 | 1015.4 |
| 20260507070038 | 48 | 91 | 3.5 | 12.2 | 0.02 | 0.09 | 0.08 | 91 | 1015.4 |
| 20260507065522 | 48 | 91 | 2.6 | 9.6 | 0.02 | 0.09 | 0.08 | 91 | 1015.4 |
| 20260507065022 | 48 | 89 | 2.6 | 9.6 | 0.03 | 0.09 | 0.08 | 91 | 1015.6 |
| 20260507064538 | 48 | 140 | 4.3 | 9.6 | 0.02 | 0.08 | 0.07 | 91 | 1015.6 |
| 20260507064025 | 48 | 70 | 4.3 | 11.3 | 0.02 | 0.08 | 0.07 | 90 | 1015.5 |
| 20260507063521 | 48 | 106 | 4.3 | 11.3 | 0.02 | 0.08 | 0.07 | 90 | 1015.4 |
| 20260507063038 | 47 | 74 | 4.3 | 11.3 | 0.01 | 0.07 | 0.07 | 90 | 1015.5 |
| 20260507062526 | 47 | 90 | 5.2 | 15.6 | 0.01 | 0.07 | 0.07 | 89 | 1015.7 |
| 20260507062026 | 48 | 132 | 3.5 | 15.6 | 0.01 | 0.07 | 0.07 | 89 | 1015.6 |
| 20260507061540 | 48 | 98 | 6.1 | 15.6 | 0.00 | 0.07 | 0.06 | 88 | 1015.5 |
| 20260507061027 | 48 | 98 | 3.5 | 12.2 | 0.00 | 0.07 | 0.06 | 88 | 1015.7 |
| 20260507060525 | 48 | 150 | 4.3 | 12.2 | 0.00 | 0.07 | 0.06 | 88 | 1015.6 |
| 20260507060048 | 48 | 106 | 5.2 | 12.2 | 0.00 | 0.07 | 0.06 | 87 | 1015.7 |
| 20260507055526 | 48 | 105 | 5.2 | 13.0 | 0.00 | 0.07 | 0.06 | 87 | 1015.6 |
| 20260507055029 | 48 | 129 | 4.3 | 13.0 | 0.00 | 0.06 | 0.05 | 86 | 1015.6 |
| 20260507054539 | 49 | 233 | 3.5 | 12.2 | 0.00 | 0.06 | 0.05 | 85 | 1015.5 |
| 20260507054025 | 49 | 130 | 5.2 | 12.2 | 0.00 | 0.06 | 0.05 | 85 | 1015.5 |
| 20260507053524 | 49 | 90 | 4.3 | 12.2 | 0.00 | 0.06 | 0.05 | 85 | 1015.6 |
| 20260507053044 | 49 | 201 | 2.6 | 12.2 | 0.00 | 0.06 | 0.05 | 85 | 1015.6 |
| 20260507052522 | 49 | 104 | 6.1 | 12.2 | 0.00 | 0.06 | 0.05 | 84 | 1015.6 |
| 20260507052025 | 49 | 129 | 1.7 | 10.4 | 0.00 | 0.06 | 0.05 | 85 | 1015.6 |
| 20260507051540 | 49 | 107 | 2.6 | 8.7 | 0.00 | 0.06 | 0.05 | 85 | 1015.6 |
| 20260507051024 | 49 | 101 | 2.6 | 8.7 | 0.00 | 0.06 | 0.05 | 85 | 1015.6 |
| 20260507050527 | 49 | 147 | 3.5 | 9.6 | 0.00 | 0.06 | 0.05 | 84 | 1015.7 |
| 20260507050038 | 49 | 108 | 4.3 | 9.6 | 0.00 | 0.06 | 0.05 | 84 | 1015.6 |
| 20260507045526 | 49 | 83 | 3.5 | 13.9 | 0.00 | 0.06 | 0.05 | 83 | 1015.3 |
| 20260507045026 | 49 | 136 | 5.2 | 13.9 | 0.00 | 0.06 | 0.05 | 83 | 1015.4 |
| 20260507044539 | 49 | 113 | 5.2 | 13.9 | 0.00 | 0.06 | 0.05 | 82 | 1015.4 |
| 20260507044025 | 50 | 115 | 5.2 | 13.0 | 0.00 | 0.06 | 0.05 | 83 | 1015.3 |
| 20260507043525 | 49 | 143 | 3.5 | 11.3 | 0.00 | 0.06 | 0.05 | 83 | 1015.2 |
| 20260507043038 | 49 | 108 | 5.2 | 11.3 | 0.00 | 0.06 | 0.05 | 83 | 1015.1 |
| 20260507042526 | 49 | 154 | 5.2 | 11.3 | 0.00 | 0.06 | 0.05 | 84 | 1015.0 |
| 20260507042027 | 49 | 97 | 2.6 | 7.0 | 0.00 | 0.06 | 0.05 | 85 | 1015.0 |
| 20260507041548 | 49 | 0 | 0.0 | 5.2 | 0.00 | 0.06 | 0.05 | 86 | 1015.0 |
| 20260507041026 | 49 | 141 | 1.7 | 6.1 | 0.00 | 0.06 | 0.05 | 85 | 1015.0 |
| 20260507040526 | 49 | 129 | 2.6 | 7.0 | 0.00 | 0.06 | 0.05 | 86 | 1014.7 |
| 20260507040043 | 49 | 129 | 2.6 | 7.0 | 0.00 | 0.06 | 0.05 | 86 | 1014.5 |
| 20260507035526 | 49 | 136 | 2.6 | 8.7 | 0.00 | 0.06 | 0.05 | 86 | 1014.6 |
| 20260507035026 | 49 | 122 | 3.5 | 10.4 | 0.00 | 0.06 | 0.05 | 86 | 1014.6 |
| 20260507034539 | 49 | 125 | 3.5 | 10.4 | 0.01 | 0.06 | 0.05 | 85 | 1014.3 |
| 20260507034025 | 49 | 134 | 3.5 | 9.6 | 0.02 | 0.06 | 0.05 | 85 | 1014.0 |
| 20260507033526 | 49 | 99 | 4.3 | 10.4 | 0.03 | 0.06 | 0.05 | 86 | 1014.1 |
| 20260507033039 | 49 | 64 | 5.2 | 12.2 | 0.03 | 0.06 | 0.05 | 86 | 1014.1 |
| 20260507032525 | 49 | 91 | 4.3 | 12.2 | 0.04 | 0.06 | 0.05 | 85 | 1014.2 |
| 20260507032025 | 49 | 84 | 4.3 | 11.3 | 0.04 | 0.06 | 0.05 | 86 | 1014.3 |
| 20260507031537 | 49 | 63 | 5.2 | 13.0 | 0.04 | 0.06 | 0.05 | 86 | 1014.2 |
| 20260507031022 | 49 | 103 | 2.6 | 13.0 | 0.04 | 0.06 | 0.05 | 86 | 1014.3 |
| 20260507030526 | 49 | 133 | 5.2 | 13.0 | 0.04 | 0.06 | 0.05 | 87 | 1014.3 |
| 20260507030038 | 49 | 101 | 5.2 | 12.2 | 0.04 | 0.06 | 0.05 | 87 | 1014.2 |
| 20260507025522 | 49 | 95 | 4.3 | 13.0 | 0.03 | 0.05 | 0.04 | 87 | 1014.2 |
| 20260507025025 | 49 | 56 | 4.3 | 13.0 | 0.03 | 0.05 | 0.04 | 87 | 1014.4 |
| 20260507024542 | 49 | 122 | 2.6 | 7.8 | 0.03 | 0.04 | 0.03 | 87 | 1014.5 |
| 20260507024025 | 49 | 145 | 2.6 | 8.7 | 0.02 | 0.03 | 0.03 | 86 | 1014.7 |
| 20260507023525 | 49 | 92 | 3.5 | 8.7 | 0.00 | 0.02 | 0.01 | 85 | 1014.9 |
| 20260507023047 | 50 | 79 | 4.3 | 8.7 | 0.00 | 0.02 | 0.01 | 83 | 1015.0 |
| 20260507022525 | 50 | 94 | 1.7 | 8.7 | 0.00 | 0.01 | 0.00 | 82 | 1015.1 |
| 20260507022026 | 50 | 103 | 0.0 | 8.7 | 0.00 | 0.01 | 0.00 | 82 | 1015.1 |
| 20260507021543 | 50 | 102 | 2.6 | 8.7 | 0.00 | 0.01 | 0.00 | 82 | 1014.9 |
| 20260507021026 | 50 | 63 | 3.5 | 8.7 | 0.00 | 0.01 | 0.00 | 82 | 1014.7 |
| 20260507020526 | 49 | 83 | 3.5 | 8.7 | 0.00 | 0.01 | 0.00 | 83 | 1014.7 |
| 20260507020230 | 49 | 69 | 4.3 | 9.6 | 0.00 | 0.01 | 0.00 | 84 | 1014.6 |
| 20260507015526 | 49 | 49 | 3.5 | 9.6 | 0.00 | 0.01 | 0.00 | 84 | 1014.7 |
| 20260507015026 | 49 | 123 | 4.3 | 9.6 | 0.00 | 0.01 | 0.00 | 85 | 1014.8 |
| 20260507014546 | 49 | 150 | 1.7 | 4.3 | 0.00 | 0.01 | 0.00 | 86 | 1014.6 |
| 20260507014026 | 49 | 98 | 0.9 | 5.2 | 0.00 | 0.01 | 0.00 | 86 | 1014.7 |
| 20260507013526 | 49 | 54 | 2.6 | 7.0 | 0.00 | 0.01 | 0.00 | 87 | 1014.7 |
| 20260507013049 | 49 | 83 | 2.6 | 7.0 | 0.00 | 0.01 | 0.00 | 87 | 1014.9 |
| 20260507012527 | 49 | 11 | 0.9 | 7.0 | 0.00 | 0.01 | 0.00 | 87 | 1014.8 |
| 20260507012026 | 49 | 120 | 0.9 | 7.0 | 0.00 | 0.01 | 0.00 | 87 | 1014.7 |
| 20260507011538 | 49 | 80 | 2.6 | 5.2 | 0.00 | 0.01 | 0.00 | 87 | 1014.7 |
| 20260507011025 | 49 | 70 | 0.9 | 5.2 | 0.00 | 0.01 | 0.00 | 87 | 1014.8 |
| 20260507010526 | 49 | 101 | 0.9 | 7.8 | 0.00 | 0.01 | 0.00 | 86 | 1014.9 |
| 20260507010039 | 49 | 59 | 1.7 | 7.8 | 0.00 | 0.01 | 0.00 | 86 | 1014.9 |
| 20260507005526 | 50 | 69 | 0.9 | 11.3 | 0.00 | 0.01 | 0.00 | 85 | 1014.9 |
| 20260507005026 | 50 | 69 | 2.6 | 11.3 | 0.00 | 0.01 | 0.00 | 84 | 1015.0 |
| 20260507004548 | 50 | 115 | 4.3 | 11.3 | 0.00 | 0.01 | 0.00 | 83 | 1014.9 |
| 20260507004025 | 50 | 81 | 3.5 | 12.2 | 0.00 | 0.01 | 0.00 | 83 | 1014.9 |
| 20260507003523 | 50 | 120 | 3.5 | 12.2 | 0.00 | 0.01 | 0.00 | 82 | 1015.1 |
| 20260507003044 | 50 | 116 | 4.3 | 12.2 | 0.00 | 0.01 | 0.00 | 82 | 1015.1 |
| 20260507002523 | 50 | 110 | 2.6 | 11.3 | 0.00 | 0.01 | 0.00 | 83 | 1015.2 |
| 20260507002026 | 51 | 111 | 3.5 | 11.3 | 0.00 | 0.01 | 0.00 | 83 | 1015.2 |
| 20260507001545 | 51 | 84 | 4.3 | 11.3 | 0.00 | 0.01 | 0.00 | 82 | 1015.1 |
| 20260507001022 | 51 | 96 | 4.3 | 13.9 | 0.00 | 0.01 | 0.00 | 81 | 1015.3 |
| 20260507000525 | 52 | 99 | 7.0 | 13.9 | 0.00 | 0.01 | 0.00 | 79 | 1015.3 |
| 20260507000038 | 52 | 143 | 4.3 | 13.0 | 0.00 | 0.01 | 0.00 | 79 | 1015.2 |
| 20260506235528 | 52 | 76 | 5.2 | 12.2 | 0.00 | 0.01 | 0.00 | 78 | 1015.1 |